COSMOS 1975

Last updated on Sun Dec 14 2025 00:02:15 GMT+0000 (Coordinated Universal Time)

1 19573U 88093A 25347.10865979 .00010655 00000+0 40625-3 0 9995 2 19573 82.5202 204.4595 0012887 111.1539 249.1078 15.26479346 6196
UTC large
Height (km)
Speed (km/s)
/
Latitude / Longitude
Inclination (degrees)
Orbital Period (minutes)
Azimuth
Elevation
Range (km)
Doppler Factor

Next 0 passes for location: London (51.5072 / 0.1276)

Sorry there are no passes over London.